Homer, AK

2:18 AM AKST on February 23, 2017 (GMT -0900)
Homer

Weather History for PAHO - February, 2013

Change the Weather History Date:

Saturday, February 16, 2013

  Actual Average Record
Temperature  
Mean Temperature 26 °F -  
Max Temperature 34 °F 30 °F 50 °F (2015)
Min Temperature 19 °F 18 °F -8 °F (1954)
Degree Days  
Heating Degree Days 38    
Moisture  
Dew Point 15 °F    
Average Humidity 60    
Maximum Humidity 73    
Minimum Humidity 47    
Precipitation  
Precipitation 0.00 in - - ()
Sea Level Pressure  
Sea Level Pressure 29.91 in    
Wind  
Wind Speed 11 mph (East)    
Max Wind Speed 20 mph    
Max Gust Speed 25 mph    
Visibility 10 miles    
Events Snow    
Averages and records for this station are not official NWS values.
T = Trace of Precipitation, MM = Missing Value Source: NWS Daily Summary

Daily Weather History Graph

Daily Weather History Graph

Search for Another Location

Airport or City:

Trip Planner

Search our weather history database for the weather conditions in past years. The results will help you decide how hot, cold, wet, or windy it might be!

Date:

Astronomy

Feb. 16, 2013 Rise Set
Actual Time 8:38 AM AKST 6:02 PM AKST
Civil Twilight 7:55 AM AKST 6:45 PM AKST
Nautical Twilight 7:07 AM AKST 7:33 PM AKST
Astronomical Twilight 6:20 AM AKST 8:21 PM AKST
Moon 10:07 AM AKST (2/16) 1:58 AM AKST (2/16)
Length of Visible Light 10h 49m
Length of Day
9h 23m
Waxing Crescent, 41% of the Moon is Illuminated
Feb 16
Waxing Crescent
Feb 17
First Quarter
Feb 25
Full
Mar 4
Last Quarter
Mar 11
New

Hourly Weather History & Observations

Time (AKST) Temp. Windchill Dew Point Humidity Pressure Visibility Wind Dir Wind Speed Gust Speed Precip Events Conditions
12:53 AM 23.0 °F 8.3 °F 12.0 °F 63% 30.03 in 10.0 mi WSW 19.6 mph 25.3 mph N/A   Mostly Cloudy
1:53 AM 23.0 °F 9.6 °F 12.9 °F 65% 30.03 in 10.0 mi SW 16.1 mph 23.0 mph N/A   Mostly Cloudy
3:34 AM 24.8 °F 15.3 °F 14.0 °F 64% 30.02 in 10.0 mi WSW 9.2 mph 17.3 mph N/A   Mostly Cloudy
3:42 AM 24.8 °F 12.9 °F 12.2 °F 59% 30.03 in 10.0 mi SW 13.8 mph 19.6 mph N/A   Scattered Clouds
3:53 AM 24.1 °F 11.0 °F 14.0 °F 65% 30.04 in 10.0 mi SW 16.1 mph - N/A   Mostly Cloudy
4:53 AM 25.0 °F 12.6 °F 15.1 °F 66% 30.03 in 10.0 mi SW 15.0 mph - N/A   Mostly Cloudy
5:53 AM 25.0 °F 14.8 °F 14.0 °F 63% 30.02 in 10.0 mi South 10.4 mph - N/A   Mostly Cloudy
6:53 AM 26.1 °F 17.6 °F 12.0 °F 55% 30.02 in 10.0 mi South 8.1 mph - N/A   Scattered Clouds
7:53 AM 24.1 °F 17.0 °F 10.9 °F 57% 30.01 in 10.0 mi SSE 5.8 mph - N/A   Scattered Clouds
8:53 AM 19.9 °F - 10.9 °F 68% 30.00 in 10.0 mi Calm Calm - N/A   Clear
9:53 AM 21.9 °F - 10.9 °F 63% 29.99 in 10.0 mi Calm Calm - N/A   Clear
10:53 AM 28.0 °F - 10.0 °F 47% 29.99 in 10.0 mi Calm Calm - N/A   Clear
11:53 AM 27.0 °F 21.6 °F 15.1 °F 61% 29.98 in 10.0 mi East 4.6 mph - N/A   Clear
12:53 PM 27.0 °F 20.5 °F 16.0 °F 63% 29.97 in 10.0 mi ENE 5.8 mph - N/A   Clear
1:53 PM 28.0 °F 24.2 °F 15.1 °F 58% 29.96 in 10.0 mi ENE 3.5 mph - N/A   Overcast
2:53 PM 28.0 °F 20.8 °F 14.0 °F 56% 29.94 in 10.0 mi ENE 6.9 mph - N/A   Overcast
3:53 PM 28.0 °F 20.0 °F 12.0 °F 51% 29.90 in 10.0 mi NE 8.1 mph - N/A   Overcast
4:53 PM 28.9 °F 21.9 °F 12.9 °F 51% 29.85 in 9.0 mi NE 6.9 mph - 0.00 in Snow Light Snow
5:53 PM 30.0 °F 21.7 °F 15.1 °F 54% 29.81 in 10.0 mi East 9.2 mph - 0.00 in   Overcast
6:53 PM 30.9 °F 22.8 °F 18.0 °F 59% 29.77 in 10.0 mi NE 9.2 mph - N/A   Overcast
7:53 PM 32.0 °F 23.0 °F 19.9 °F 61% 29.73 in 10.0 mi ENE 11.5 mph - N/A   Overcast
8:53 PM 34.0 °F 26.6 °F 21.9 °F 61% 29.69 in 10.0 mi ENE 9.2 mph - N/A   Overcast
9:53 PM 34.0 °F 28.8 °F 21.9 °F 61% 29.67 in 10.0 mi ENE 5.8 mph - N/A   Overcast
10:53 PM 34.0 °F 28.8 °F 24.1 °F 67% 29.63 in 9.0 mi NE 5.8 mph - N/A   Overcast
11:53 PM 34.0 °F 29.8 °F 26.1 °F 73% 29.62 in 7.0 mi ENE 4.6 mph - 0.00 in Snow Light Snow